Location: Maiden
(35.5760°N, 81.2120°W)
Time: 10:58:14
(UTC-04:00)

Vanguard 2 - Visible Passes

Search period start: 06 May 2021 00:00
Search period end: 16 May 2021 00:00
Orbit: 552 x 2938 km, 32.9° (Epoch: 05 May)

Date Brightness Start Highest point End Pass type
(mag) Time Alt. Az. Time Alt. Az. Time Alt. Az.
08 May 11.1 04:40:00 10° SE 04:40:48 10° SE 04:41:38 10° ESE visible
09 May 10.7 04:52:17 10° SSE 04:57:44 16° SE 05:04:37 10° E visible
10 May 10.5 05:07:53 10° S 05:14:45 23° SE 05:24:13 10° E visible
11 May 10.3 05:24:15 10° SSW 05:31:50 31° SE 05:43:04 10° E visible
12 May 10.2 05:41:03 10° SSW 05:49:04 40° SE 06:01:34 10° E visible
13 May 10.4 03:55:27 11° SSE 03:58:49 14° SE 04:03:25 10° ESE visible
14 May 10.0 04:12:12 15° SSE 04:15:50 21° SE 04:23:05 10° E visible
15 May 9.7 04:28:56 19° S 04:32:57 29° SE 04:41:53 10° E visible
